カタログに戻る

SL-14 DEB

運用中PO
NORAD 25205·DEBRIS·🇷🇺 Russia

打ち上げ Aug 18, 1987 から Plesetsk Cosmodrome

Loading…

次のパス (今後24時間)

TLE

最新Source: Space-Track

元期: Sep 14, 2026, 09:18 UTC

1 25205U 87068AG  26257.38803507  .00000346  00000-0  24757-3 0  9990
2 25205  82.5364 126.9051 0013053 252.8010 231.0332 13.94558328449254

AllMySatでSL-14 DEBをリアルタイム追跡

Download on the App Store